www.pogodaiklimat.ru

Погода и климат >> Архив погоды >> Иран >> Yasuj


ПОГОДА в Yasuj

  • Прогноз погоды в Yasuj
  • Монитор погоды в Yasuj
  • Климат города

АРХИВ ПОГОДЫ в Yasuj

Время (UTC), дата Ветер
(напр.,м/с)
 
Видим.   Явления Облачность Т
(С)
Тd
(С)
f
(%)
Тe
(С)
Тes
(С)
Комфортность P
(гПа)
Po
(гПа)
Тmin
(С)
Tmax
(С)
R
(мм)
R24
(мм)
S
(см)
00 12.12 штиль 0 15 км ясно +0.6 -6.2 60 0 0 1021.9 823.2
03 12.12 штиль 0 15 км ясно -1.2 -8.2 59 -2 -2 1025.7 823.8 -1.6
06 12.12 штиль 0 15 км ясно +2.6 -5.3 56 +2 +7 1027.1 825.3
09 12.12 штиль 0 15 км ясно +10.6 -13.9 16 +11 +21 опасность
простуды
1023.5 823.8
12 12.12 штиль 0 15 км ясно +15.2 -16.0 10 +15 +18 1020.7 822.6
15 12.12 В 5 15 км ясно +8.8 -12.5 21 +6 +6 1024.7 823.3 +16.2
18 12.12 штиль 0 15 км ясно +5.6 -10.3 31 +6 +6 1025.0 823.8
21 12.12 штиль 0 15 км ясно +3.0 -6.8 49 +3 +3 1022.6 824.0
00 13.12 штиль 0 15 км ясно +1.0 -7.8 52 +1 +1 1021.6 823.6
03 13.12 штиль 0 15 км ясно -2.0 -8.6 61 -3 -3 1026.1 824.2 -2.0
06 13.12 штиль 0 15 км ясно +3.0 -11.1 35 +3 +8 1027.4 825.8
09 13.12 штиль 0 15 км ясно +12.2 -16.0 12 +12 +23 опасность
простуды
1023.1 824.3
12 13.12 В 2 15 км ясно +15.6 -11.6 14 +16 +18 1020.7 822.9
15 13.12 В 4 15 км ясно +9.0 -12.0 21 +7 +7 1026.3 824.4 +15.8
18 13.12 штиль 0 15 км ясно +6.0 -12.6 25 +6 +6 1026.3 825.0
21 13.12 штиль 0 15 км ясно +0.6 -7.7 54 0 0 1024.5 825.0
00 14.12 штиль 0 15 км ясно -0.2 -7.4 58 -1 -1 1024.1 825.4
03 14.12 штиль 0 15 км ясно -1.4 -9.3 55 -2 -2 1028.4 826.3 -2.0
06 14.12 штиль 0 20 км ясно +3.0 -10.2 37 +3 +8 1029.4 827.6
09 14.12 штиль 0 20 км ясно +11.0 -12.8 17 +11 +21 опасность
простуды
1027.0 826.4
12 14.12 ЮВ 4 20 км ясно +13.4 -12.1 16 +12 +14 1024.7 825.0
15 14.12 штиль 0 15 км ясно +7.8 -9.4 28 +8 +8 1028.2 825.7 +13.6
18 14.12 В 3 12 км ясно +4.4 -10.1 34 +2 +2 1028.4 826.2
21 14.12 штиль 0 12 км ясно +1.2 -8.3 49 +1 +1 1026.0 825.4
00 15.12 штиль 0 12 км ясно -0.4 -7.0 61 -1 -1 1024.6 825.0
03 15.12 штиль 0 15 км ясно -1.4 -7.0 66 -2 -2 1027.9 825.6 -1.6
06 15.12 штиль 0 15 км ясно +4.2 -4.3 54 +4 +9 1028.4 826.8
09 15.12 штиль 0 15 км ясно +10.0 -6.4 31 +10 +20 опасность
простуды
1026.5 826.0
12 15.12 штиль 0 15 км ясно +14.0 -12.1 15 +14 +17 1023.5 824.2
15 15.12 В 4 15 км ясно +8.0 -7.2 33 +6 +6 1026.9 824.8 +14.6
18 15.12 штиль 0 20 км ясно +4.4 -9.2 36 +4 +4 1027.4 825.8
21 15.12 штиль 0 15 км ясно +2.6 -8.3 44 +2 +2 1025.8 825.8
00 16.12 штиль 0 15 км ясно +0.6 -7.7 54 0 0 1025.3 826.0
03 16.12 штиль 0 15 км ясно -1.4 -7.0 66 -2 -2 1029.1 826.6 -1.8
06 16.12 штиль 0 15 км ясно +3.2 -6.5 49 +3 +8 1030.6 828.1
09 16.12 штиль 0 15 км ясно +11.2 -13.5 16 +11 +22 опасность
простуды
1026.1 826.3
12 16.12 Ю 2 15 км ясно +15.0 -12.3 14 +15 +17 1023.7 825.0
15 16.12 В 5 15 км ясно +8.8 -11.4 23 +6 +6 1028.1 825.9 +15.2
18 16.12 штиль 0 15 км ясно +5.0 -6.7 42 +5 +5 1028.2 826.4
21 16.12 штиль 0 15 км ясно +2.6 -6.7 50 +2 +2 1026.2 826.6
00 17.12 штиль 0 15 км ясно -0.2 -5.4 68 -1 -1 1025.5 826.4
03 17.12 штиль 0 15 км ясно -2.8 -6.9 73 -4 -4 1029.4 826.7 -2.8
06 17.12 штиль 0 15 км ясно +3.6 -8.6 40 +3 +9 1029.2 827.3
09 17.12 штиль 0 15 км ясно +11.2 -13.5 16 +11 +22 опасность
простуды
1024.5 825.0
12 17.12 ЮВ 4 15 км ясно +15.0 -21.1 7 +14 +16 1022.2 823.4
15 17.12 В 4 15 км ясно +8.4 -13.6 19 +6 +6 1026.7 824.2 +15.4
18 17.12 ЮВ 2 15 км ясно +3.6 -13.0 28 +2 +2 1027.3 825.2
21 17.12 ЮВ 2 15 км ясно +1.6 -13.2 32 -1 -1 1025.2 825.0
00 18.12 штиль 0 15 км ясно +1.0 -13.4 33 +1 +1 1023.5 825.0
03 18.12 штиль 0 15 км 8/3 1200 м
[Sc diur, vesp Ac As]
+1.6 -14.3 30 +2 +2 1025.1 824.4 -0.2
06 18.12 штиль 0 20 км 10/4 1200 м
[Sc diur, vesp Ac As]
+4.8 -14.7 23 +5 +6 1028.4 826.5
09 18.12 Ю 2 15 км 8/3 1200 м
[Sc diur, vesp Ac As]
+9.8 -11.1 22 +9 +12 1025.8 825.4
12 18.12 штиль 0 15 км ясно +12.4 -3.1 34 +12 +15 1023.4 824.3
15 18.12 штиль 0 15 км ясно +7.8 -2.4 48 +8 +8 1025.1 824.4 +12.4
18 18.12 штиль 0 10 км ясно +4.0 -3.2 59 +3 +3 1025.6 824.6
21 18.12 штиль 0 10 км ясно +2.4 -2.8 69 +2 +2 825.1

 

Местоположение метеостанции Yasuj (Иран): широта 30.67 долгота 51.58 высота над уровнем моря 1837 м.

В архиве по умолчанию представлена погода в Yasuj за последнюю неделю. Архивные данные за месяц целиком и за предыдущие месяцы, начиная с января 2011 года, Вы можете получить, выбрав интересующий диапазон дат из раскрывающегося списка и нажав кнопку "Ввод!".


*Определитесь, кто Вы:
робот инопланетянин человек

Внимание! Время в таблицах - всемирное. Для получения местного времени необходимо прибавить поправку, которая в Yasuj равна 3.5 ч.

Смотрите также архив погоды в соседних городах и на ближайших метеорологических станциях:

Погода в Gach Saran (Иран) (82 км)
Погода в Abadeh (Иран) (118 км)
Погода в Shiraz (Иран) (156 км)
Погода в Omidieh (Иран) (183 км)
Погода в Shahre-Kord (Иран) (192 км)
Погода в Khark (Иран) (198 км)
Погода в Esfahan (Иран) (200 км)
Погода в Bushehr Airport (Иран) (201 км)
Погода в Bushehr (Иран) (204 км)
Погода в Masjed-Soleyman (Иран) (263 км)

Пояснения к столбцам:

Ветер - указаны скорость ветра в м/с - средняя за 10 мин, порывы в срок и между сроками (в фигурных скобках) и направление, откуда дует ветер: С - северный, СВ - северо-восточный, В - восточный, ЮВ - юго-восточный, Ю - южный, ЮЗ - юго-западный, З - западный, СЗ - северо-западный.
Видимость - горизонтальная дальность видимости в метрах или километрах. При видимости от 1 до 10 км при отсутствии осадков обычно наблюдается дымка, при ухудшении видимости до 1 км и менее - туман. В сухую погоду видимость может ухудшаться дымом, пылью или мглою.
Явления - указаны атмосферные явления, наблюдавшиеся в срок или в последний час перед сроком; фигурными скобками обозначены явления, наблюдавшиеся между сроками (за 1-3 часа до срока); квадратными скобками обозначены град или гололедные отложения с указанием их диаметра в мм.
Облачность - указаны через наклонную черту общая и нижняя облачность в баллах и высота нижней границы облаков в метрах; квадратными скобками обозначены формы облаков: Ci - перистые, Cs - перисто-слоистые, Cc - перисто-кучевые, Ac - высококучевые, As - высокослоистые, Sc - слоисто-кучевые, Ns - слоисто-дождевые, Cu - кучевые, Cb - кучево-дождевые. Подробнее классификацию облаков см. в Атласе облаков (PDF).
T - Температура воздуха - температура, измеренная на высоте 2 м над землей.
Td - Температура точки росы - температура, при понижении до которой содержащийся в воздухе водяной пар достигнет насыщения.
f - Относительная влажность воздуха - влажноcть воздуха, измеренная на высоте 2 м над землей.
Te - Эффективная температура - температура, которую ощущает одетый по сезону человек в тени. Характеристика душности погоды. При расчете учитывается влияние влажности воздуха и скорости ветра на теплоощущения человека.
Tes - Эффективная температура на солнце - температура, которую ощущает человек, с поправкой на солнечный нагрев. Характеристика знойности погоды. Зависит от высоты солнца над горизонтом, облачности и скорости ветра. Ночью, в пасмурную погоду, а также при ветре 12 м/с и более поправка равна нулю.
P - Атмосферное давление - приведенное к уровню моря атмосферное давление.
Po - Атмосферное давление - измеренное на уровне метеостанции атмосферное давление.
Tmin - Минимальная температура - минимум температуры воздуха на высоте 2 м над землей.
Tmax - Максимальная температура - максимум температуры воздуха на высоте 2 м над землей.
R - Количество осадков - Количество выпавших осадков за период времени, мм. При наведении курсора мыши на число - период времени, за который выпало указанное количество осадков.
R24 - Количество осадков - Количество выпавших осадков за 24 часа, мм.
S - Снежный покров - Высота снежного покрова, см. При наведении курсора мыши на число - состояние снежного покрова и степень покрытия местности в баллах.